Fort Polk, LA

2:46 PM CDT on October 22, 2017 (GMT -0500)
Fort Polk

Weather History for KAQV - October, 2012

Change the Weather History Date:

Sunday, October 7, 2012

  Actual Average (KPOE) Record (KPOE)
Temperature  
Mean Temperature 55 °F -  
Max Temperature 62 °F 77 °F 89 °F (2007)
Min Temperature 48 °F 59 °F 46 °F (2001)
Degree Days  
Heating Degree Days 10    
Growing Degree Days 5 (Base 50)    
Moisture  
Dew Point 45 °F    
Average Humidity 73    
Maximum Humidity 83    
Minimum Humidity 56    
Precipitation  
Precipitation 0.00 in - - ()
Sea Level Pressure  
Sea Level Pressure 30.16 in    
Wind  
Wind Speed 7 mph (NNE)    
Max Wind Speed 12 mph    
Max Gust Speed 17 mph    
Visibility 10 miles    
Events      
Averages and records for this station are not official NWS values.
T = Trace of Precipitation, MM = Missing Value Source: NWS Daily Summary

Daily Weather History Graph

Daily Weather History Graph

Search for Another Location

Airport or City:

Trip Planner

Search our weather history database for the weather conditions in past years. The results will help you decide how hot, cold, wet, or windy it might be!

Date:

Astronomy

Oct. 07, 2012 Rise Set
Actual Time 7:11 AM CDT 6:50 PM CDT
Civil Twilight 6:46 AM CDT 7:14 PM CDT
Nautical Twilight 6:18 AM CDT 7:42 PM CDT
Astronomical Twilight 5:50 AM CDT 8:10 PM CDT
Moon No Moon Rise 1:33 PM CDT (10/7)
Length of Visible Light 12h 27m
Length of Day
11h 39m
Waning Gibbous, 56% of the Moon is Illuminated
Oct 7
Waning Gibbous
Oct 8
Last Quarter
Oct 15
New
Oct 21
First Quarter
Oct 29
Full

Hourly Weather History & Observations

Time (CDT) Temp. Dew Point Humidity Pressure Visibility Wind Dir Wind Speed Gust Speed Precip Events Conditions
12:56 AM 51.1 °F 45.0 °F 80% 30.14 in 10.0 mi Variable 6.9 mph - N/A   Overcast
1:56 AM 50.0 °F 45.0 °F 83% 30.14 in 10.0 mi North 8.1 mph - N/A   Overcast
2:56 AM 48.9 °F 44.1 °F 83% 30.14 in 10.0 mi NE 8.1 mph - N/A   Overcast
3:30 AM 48.2 °F 42.8 °F 82% 30.15 in 10.0 mi NNE 5.8 mph - N/A   Overcast
3:56 AM 48.9 °F 42.1 °F 77% 30.15 in 10.0 mi Variable 5.8 mph - N/A   Overcast
4:56 AM 48.9 °F 43.0 °F 80% 30.16 in 10.0 mi NNE 5.8 mph - N/A   Overcast
5:56 AM 48.9 °F 43.0 °F 80% 30.16 in 10.0 mi North 5.8 mph - N/A   Overcast
6:56 AM 48.9 °F 44.1 °F 83% 30.18 in 10.0 mi North 4.6 mph - N/A   Overcast
7:56 AM 48.9 °F 44.1 °F 83% 30.20 in 10.0 mi North 9.2 mph - N/A   Overcast
8:22 AM 48.2 °F 42.8 °F 82% 30.21 in 10.0 mi NNE 8.1 mph - N/A   Overcast
8:56 AM 50.0 °F 43.0 °F 77% 30.22 in 10.0 mi NNE 9.2 mph - N/A   Overcast
9:56 AM 51.1 °F 43.0 °F 74% 30.22 in 10.0 mi NE 9.2 mph - N/A   Overcast
10:56 AM 53.1 °F 43.0 °F 69% 30.22 in 10.0 mi NNE 10.4 mph 16.1 mph N/A   Overcast
11:41 AM 55.4 °F 44.6 °F 67% 30.21 in 10.0 mi NE 11.5 mph 17.3 mph N/A   Overcast
11:56 AM 55.9 °F 44.1 °F 64% 30.21 in 10.0 mi NNE 8.1 mph - N/A   Overcast
12:36 PM 57.2 °F 44.6 °F 63% 30.18 in 10.0 mi NNE 4.6 mph - N/A   Mostly Cloudy
12:56 PM 57.9 °F 45.0 °F 62% 30.17 in 10.0 mi Variable 6.9 mph - N/A   Overcast
1:56 PM 60.1 °F 45.0 °F 57% 30.15 in 10.0 mi North 8.1 mph - N/A   Mostly Cloudy
2:56 PM 62.1 °F 46.0 °F 56% 30.12 in 10.0 mi NE 6.9 mph - N/A   Mostly Cloudy
3:56 PM 62.1 °F 46.0 °F 56% 30.12 in 10.0 mi NNE 6.9 mph - N/A   Mostly Cloudy
4:56 PM 61.0 °F 46.0 °F 58% 30.12 in 10.0 mi Variable 6.9 mph - N/A   Overcast
5:56 PM 57.9 °F 46.0 °F 65% 30.12 in 10.0 mi North 8.1 mph - N/A   Overcast
6:56 PM 55.9 °F 46.0 °F 69% 30.12 in 10.0 mi North 4.6 mph - N/A   Scattered Clouds
7:56 PM 53.1 °F 46.9 °F 80% 30.14 in 10.0 mi North 4.6 mph - N/A   Clear
8:56 PM 54.0 °F 46.9 °F 77% 30.15 in 10.0 mi Calm Calm - N/A   Overcast
9:56 PM 55.0 °F 46.9 °F 74% 30.15 in 10.0 mi Calm Calm - N/A   Overcast
10:56 PM 54.0 °F 48.0 °F 80% 30.16 in 10.0 mi NNW 3.5 mph - N/A   Overcast
11:56 PM 54.0 °F 48.0 °F 80% 30.17 in 10.0 mi Calm Calm - N/A   Overcast